Location: Cosy Dell
(34.2789°N, 117.4537°W)
Time: 12:19:28
(UTC+00:00)

Ariane Rocket - Pass Details

Date: 14 July 2020
Orbit: 759 x 771 km, 98.7° (Epoch: 08 August)

Event Time Altitude Azimuth Distance (km) Brightness Sun altitude
Rises 03:54:14 0° 178° (S) 3,227 5.9 -9.9°
Reaches altitude 10° 03:56:35 10° 183° (S) 2,304 5.2 -10.3°
Maximum altitude 04:01:32 53° 259° (W) 944 3.8 -11.1°
Drops below altitude 10° 04:06:30 10° 336° (NNW) 2,313 6.5 -12.0°
Sets 04:08:52 0° 341° (NNW) 3,242 7.2 -12.4°
